Weather in Brahmanbaria

Bangladesh     24°01′41″N   91°00′11″E
temp.,
°C
wind,
m/s
gust,
m/s
humid.,
%
clouds,
%
prec.,
mm/h
press.,
hPa
HPBL,
m
20 june, sun
sun2000:00+24sse479796 2.1 1005261
03:00+24sse479897 0.0 1003301
06:00+24se4896100 0.0 1004339
09:00+25se489394 0.0 1005434
12:00+28sse787943 1.6 1005879
15:00+29sse787772 0.6 1003974
18:00+27sse6108751 1.8 1003664
21:00+25se6129193 0.1 1005577
21 june, mon
mon2100:00+24se5109349 0.1 1004395
03:00+24se4995100 1.1 1003357
06:00+24se389540 1.7 1004312
09:00+28se458168 0.2 1005732
12:00+29sse447653 4.3 1004858
15:00+31sse446988 2.4 10011206
18:00+29sse46835 6.9 1001334
21:00+26sse489310 3.8 1003228
22 june, tue
tue2200:00+25se49955 6.1 1003308
03:00+25se499634 2.2 1003300
06:00+25se499536 2.4 1004332
09:00+30sse567644 0.0 1005867
12:00+31sse5570100 2.8 10041151
15:00+32s566676 0.6 10011282
18:00+30s5977100 1.1 1001474
21:00+27sse51185100 0.0 1004430
23 june, wed
wed2300:00+26sse51189100 0.9 1004418
03:00+26sse41093100 0.6 1003367
06:00+26se499397 1.2 1004379
09:00+30sse567483 0.2 1005800
12:00+32s556788 2.8 10031268
15:00+31s4674100 6.1 1002856
18:00+30s51079100 9.4 1002410
21:00+27sse51189100 1.1 1004400
24 june, thu
thu2400:00+27sse5119199 1.7 1004475
03:00+26sse41094100 4.4 1002442
06:00+26sse5109399 7.3 1003365
09:00+29sse6779100 0.8 1004722
12:00+31s6668100 1.3 10021157
15:00+32s3464100 0.4 10001218
18:00+29sse3683100 5.6 1000216
21:00+27sse4109127 2.3 1001320